[[{"header":{"parameterUnit":"m.s-1","parameterCategory":1,"la1":30.2991,"la2":30.254,"lo1":-89.0895,"lo2":-89.0444,"dy":0.0017,"dx":0.0017,"nx":28,"ny":28,"refTime":"2023-11-06T03:00:00:Z","depth":0,"parameterNumber":2,"parameterNumberName":"U-component_of_WINDS"},"data":[0,0,0,0,0,0,0,0,0,0,0,0,0,0,0,0,0,0,0,0,0,0,0,0,0,0,0,0,0,0,0,0,0,0,0,0,0,0,0,0,0,0,0,0,0,0,0,0,0,0,0,0,0,0,0,0,0,0,-0.2929,-0.2929,0,-0.2943,-0.2943,-0.2943,-0.2938,-0.2938,-0.2938,-0.2937,-0.2952,-0.2953,-0.2954,0,0,0,0,0,0,0,0,0,0,0,0,0,-0.2897,-0.2898,-0.2929,-0.2929,-0.2929,-0.2943,-0.2943,-0.2943,-0.2938,-0.2938,-0.2938,-0.2937,-0.2952,-0.2953,-0.2954,0,0,0,0,0,0,0,0,0,0,0,0,0,-0.2911,-0.2898,-0.2929,-0.2928,-0.2929,-0.2943,-0.2943,-0.2943,-0.2938,-0.2938,-0.2938,-0.2937,-0.2952,-0.2953,-0.2954,-0.297,0,0,-0.2957,-0.2957,0,0,0,0,0,0,0,0,-0.291,-0.2912,-0.2928,-0.2928,-0.2929,-0.2938,-0.2937,-0.2952,-0.2939,-0.2935,-0.2937,-0.2937,-0.2948,-0.2949,-0.2953,-0.297,-0.2971,-0.2957,-0.2958,-0.2958,-0.2958,0,0,0,0,0,0,0,-0.2909,-0.2911,-0.2934,-0.2929,-0.2929,-0.2927,-0.2929,-0.294,-0.2944,-0.2935,-0.2935,-0.2936,-0.2948,-0.2952,-0.2953,-0.2971,-0.2957,-0.2958,-0.2959,-0.2959,-0.3,-0.3001,0,0,0,0,0,0,-0.2908,-0.2911,-0.2934,-0.2935,-0.2918,-0.2928,-0.293,-0.2936,-0.2944,-0.2945,-0.2937,-0.2936,-0.2951,-0.2952,-0.2954,-0.2972,-0.2958,-0.2959,-0.296,-0.3,-0.3,-0.3001,0,0,0,0,0,0,-0.2907,-0.291,-0.2933,-0.2923,-0.2926,-0.2929,-0.2936,-0.2936,-0.294,-0.2945,-0.2946,-0.294,-0.295,-0.2952,-0.2965,-0.2972,-0.296,-0.2961,-0.2999,-0.3,-0.3001,-0.3009,0,0,0,0,0,0,-0.2907,-0.291,-0.2916,-0.2923,-0.2926,-0.2945,-0.2936,-0.2937,-0.2942,-0.2941,-0.2949,-0.2949,-0.295,-0.2964,-0.2966,-0.2974,-0.2961,-0.2999,-0.3,-0.3,-0.3008,-0.301,-0.3011,0,0,0,0,0,-0.2905,-0.2919,-0.2917,-0.292,-0.2934,-0.2945,-0.2947,-0.2948,-0.2943,-0.2949,-0.2952,-0.2949,-0.2971,-0.2965,-0.2968,-0.2976,-0.2998,-0.2999,-0.3,-0.3007,-0.3009,-0.3011,0,0,0,0,0,0,-0.2914,-0.292,-0.2918,-0.2933,-0.2939,-0.2945,-0.2953,-0.295,-0.2958,-0.2957,-0.2957,-0.2959,-0.2972,-0.2975,-0.2968,-0.299,-0.2984,-0.2985,-0.2988,-0.299,-0.2992,-0.2991,-0.2962,0,0,0,0,0,-0.2917,-0.2926,-0.2931,-0.2944,-0.2947,-0.2949,-0.2954,-0.2954,-0.296,-0.2962,-0.2966,-0.2972,-0.2979,-0.2985,-0.2993,-0.3008,-0.3009,-0.3014,-0.3016,-0.3017,-0.3019,-0.3026,-0.3028,-0.3004,-0.3004,-0.3004,0,0,-0.2925,-0.2929,-0.2935,-0.2946,-0.295,-0.2958,-0.2951,-0.2961,-0.2967,-0.2964,-0.2976,-0.2978,-0.2985,-0.2998,-0.3005,-0.3002,-0.3026,-0.3019,-0.302,-0.3021,-0.3027,-0.3029,-0.3031,-0.3005,-0.3005,-0.3005,0,0,-0.2943,-0.2947,-0.2958,-0.2962,-0.2969,-0.297,-0.2972,-0.2978,-0.2979,-0.2992,-0.2988,-0.2996,-0.301,-0.3014,-0.3018,-0.3036,-0.3033,-0.3038,-0.3047,-0.3054,-0.3056,-0.3057,-0.3063,-0.3065,-0.304,-0.304,-0.304,0,-0.2952,-0.2965,-0.2964,-0.2974,-0.2978,-0.2975,-0.2985,-0.2989,-0.2998,-0.3001,-0.2997,-0.3013,-0.3018,-0.3032,-0.3036,-0.3039,-0.3042,-0.3038,-0.3055,-0.3057,-0.3059,-0.3064,-0.3066,-0.304,-0.304,-0.304,-0.304,0,-0.2975,-0.2984,-0.2992,-0.2999,-0.3004,-0.3015,-0.3015,-0.302,-0.3019,-0.302,-0.3032,-0.3036,-0.3044,-0.3048,-0.3047,-0.3061,-0.3059,-0.3055,-0.3049,-0.3061,-0.3066,-0.3068,-0.3041,-0.3041,-0.3041,-0.304,0,0,-0.3,-0.3006,-0.3009,-0.3011,-0.3017,-0.3024,-0.3033,-0.304,-0.3044,-0.305,-0.3057,-0.3068,-0.3064,-0.3069,-0.3068,-0.3074,-0.3087,-0.307,-0.307,-0.3072,-0.3101,-0.3104,-0.3106,-0.3085,-0.3085,-0.3086,-0.31,0,-0.3018,-0.3034,-0.3033,-0.3048,-0.3056,-0.3051,-0.3059,-0.3063,-0.3064,-0.3071,-0.3072,-0.3079,-0.3074,-0.3077,-0.3082,-0.3084,-0.3092,-0.3083,-0.3091,-0.3092,-0.309,-0.3109,-0.3112,-0.3126,-0.3102,-0.3103,-0.3103,0,-0.3042,-0.3047,-0.3063,-0.3066,-0.3069,-0.3076,-0.3082,-0.3088,-0.3092,-0.3092,-0.3096,-0.3094,-0.3103,-0.3096,-0.3107,-0.31,-0.3104,-0.3105,-0.3105,-0.3106,-0.3098,-0.311,-0.313,-0.3132,-0.3106,-0.3106,-0.3106,0,-0.3058,-0.3069,-0.3079,-0.3082,-0.3086,-0.309,-0.3092,-0.3096,-0.31,-0.3104,-0.3107,-0.3113,-0.3116,-0.312,-0.312,-0.3115,-0.3131,-0.3124,-0.3131,-0.3131,-0.3135,-0.3135,-0.3156,-0.3137,-0.3137,-0.3137,-0.3137,0,-0.3078,-0.3088,-0.3086,-0.3092,-0.3103,-0.3101,-0.3111,-0.3112,-0.3115,-0.3121,-0.3118,-0.3123,-0.3122,-0.3128,-0.3128,-0.3136,-0.3138,-0.3138,-0.3138,-0.3138,-0.3138,-0.314,-0.3139,-0.3138,-0.3138,-0.3138,-0.3138,0,-0.3098,-0.3097,-0.3108,-0.311,-0.3111,-0.3118,-0.312,-0.3126,-0.3126,-0.3133,-0.3135,-0.3135,-0.3142,-0.3141,-0.3149,-0.3148,-0.3159,-0.3158,-0.3157,-0.3157,-0.3164,-0.3163,-0.3187,-0.319,-0.317,-0.317,-0.317,0,-0.3111,-0.3118,-0.312,-0.3124,-0.3126,-0.3132,-0.3135,-0.3133,-0.3137,-0.3141,-0.3146,-0.3152,-0.3156,-0.3166,-0.3167,-0.3172,-0.3171,-0.3179,-0.3171,-0.3171,-0.317,-0.3169,-0.317,-0.318,-0.318,-0.3181,-0.3181,0,-0.3133,-0.3132,-0.3137,-0.3142,-0.3146,-0.315,-0.3153,-0.3156,-0.3154,-0.3159,-0.3164,-0.3168,-0.3174,-0.318,-0.3184,-0.3186,-0.3183,-0.3183,-0.3185,-0.3185,-0.3184,-0.3184,-0.3161,-0.3182,-0.3182,-0.3182,-0.3182,-0.3182,-0.315,-0.3155,-0.3157,-0.3163,-0.3165,-0.3167,-0.3172,-0.3172,-0.3177,-0.3182,-0.3181,-0.3187,-0.3189,-0.3195,-0.3197,-0.3201,-0.3199,-0.3201,-0.3202,-0.3203,-0.3203,-0.3184,-0.3202,-0.3202,-0.3202,-0.3202,-0.3202,0,-0.3172,-0.3173,-0.3177,-0.3181,-0.3185,-0.3181,-0.3184,-0.3188,-0.3193,-0.3196,-0.3199,-0.3206,-0.321,-0.3211,-0.3215,-0.3219,-0.3217,-0.322,-0.322,-0.322,-0.3206,-0.3204,-0.3221,-0.3221,-0.3221,-0.3221,-0.3221,-0.3221,-0.3184,-0.3192,-0.3191,-0.32,-0.3201,-0.3207,-0.3209,-0.3211,-0.3212,-0.3219,-0.3223,-0.3223,-0.3224,-0.3228,-0.3232,-0.3232,-0.3233,-0.3236,-0.3236,-0.3223,-0.3221,-0.3219,-0.3217,-0.3237,-0.3237,-0.3249,-0.3249,-0.3249]},{"header":{"parameterUnit":"m.s-1","parameterCategory":1,"la1":30.2991,"la2":30.254,"lo1":-89.0895,"lo2":-89.0444,"dy":0.0017,"dx":0.0017,"nx":28,"ny":28,"refTime":"2023-11-06T03:00:00:Z","depth":0,"parameterNumber":3,"parameterNumberName":"V-component_of_WINDS"},"data":[0,0,0,0,0,0,0,0,0,0,0,0,0,0,0,0,0,0,0,0,0,0,0,0,0,0,0,0,0,0,0,0,0,0,0,0,0,0,0,0,0,0,0,0,0,0,0,0,0,0,0,0,0,0,0,0,0,0,-1.2447,-1.2447,0,-1.247,-1.247,-1.2471,-1.2456,-1.2455,-1.2455,-1.2454,-1.2476,-1.2477,-1.2479,0,0,0,0,0,0,0,0,0,0,0,0,0,-1.2386,-1.2388,-1.2447,-1.2447,-1.2447,-1.247,-1.2471,-1.2471,-1.2456,-1.2455,-1.2454,-1.2454,-1.2476,-1.2477,-1.2479,0,0,0,0,0,0,0,0,0,0,0,0,0,-1.2411,-1.2388,-1.2447,-1.2443,-1.2443,-1.247,-1.2471,-1.2471,-1.2456,-1.2455,-1.2454,-1.2453,-1.2475,-1.2477,-1.2479,-1.2511,0,0,-1.2485,-1.2485,0,0,0,0,0,0,0,0,-1.241,-1.2414,-1.2443,-1.2443,-1.2443,-1.2459,-1.2457,-1.2484,-1.2457,-1.2451,-1.2454,-1.2453,-1.2471,-1.2473,-1.248,-1.2512,-1.2513,-1.2485,-1.2486,-1.2487,-1.2487,0,0,0,0,0,0,0,-1.2408,-1.2413,-1.2456,-1.2443,-1.2443,-1.2439,-1.2441,-1.2462,-1.2467,-1.2451,-1.245,-1.2454,-1.2471,-1.2478,-1.248,-1.2513,-1.2485,-1.2486,-1.2487,-1.2488,-1.2572,-1.2574,0,0,0,0,0,0,-1.2407,-1.2411,-1.2455,-1.2457,-1.2424,-1.2441,-1.2444,-1.2455,-1.2466,-1.2467,-1.2454,-1.2453,-1.2476,-1.2478,-1.2481,-1.2519,-1.2487,-1.2488,-1.2489,-1.2571,-1.2573,-1.2574,0,0,0,0,0,0,-1.2406,-1.2411,-1.2454,-1.2434,-1.2439,-1.2443,-1.2456,-1.2456,-1.2463,-1.2469,-1.2469,-1.2461,-1.2475,-1.2479,-1.2504,-1.252,-1.2489,-1.2491,-1.257,-1.2572,-1.2573,-1.2596,0,0,0,0,0,0,-1.2404,-1.2411,-1.2424,-1.2434,-1.244,-1.2477,-1.2457,-1.2457,-1.2467,-1.2465,-1.2475,-1.2476,-1.2474,-1.2501,-1.2506,-1.2522,-1.2492,-1.2569,-1.2571,-1.2573,-1.2594,-1.2598,-1.2602,0,0,0,0,0,-1.2402,-1.2429,-1.2424,-1.243,-1.2456,-1.2478,-1.2481,-1.248,-1.2468,-1.2481,-1.2484,-1.2475,-1.2517,-1.2504,-1.2509,-1.2526,-1.2568,-1.257,-1.2573,-1.2592,-1.2598,-1.2602,0,0,0,0,0,0,-1.242,-1.243,-1.2425,-1.2456,-1.2467,-1.2476,-1.2491,-1.2486,-1.2499,-1.2496,-1.2493,-1.2496,-1.2522,-1.2526,-1.2511,-1.2557,-1.254,-1.2544,-1.2554,-1.2559,-1.2563,-1.2561,-1.2494,0,0,0,0,0,-1.2427,-1.2445,-1.2453,-1.2479,-1.2485,-1.2487,-1.2497,-1.2495,-1.2505,-1.2509,-1.2514,-1.2524,-1.2539,-1.2549,-1.2563,-1.2594,-1.2596,-1.2608,-1.2613,-1.2616,-1.2619,-1.2636,-1.2641,-1.2582,-1.2582,-1.2582,0,0,-1.2443,-1.2451,-1.2462,-1.2483,-1.2491,-1.2508,-1.2491,-1.251,-1.2523,-1.2512,-1.2536,-1.254,-1.255,-1.2579,-1.2591,-1.2583,-1.2636,-1.2619,-1.2622,-1.2623,-1.2639,-1.2644,-1.2649,-1.2584,-1.2584,-1.2583,0,0,-1.248,-1.2488,-1.2511,-1.2519,-1.2531,-1.2533,-1.2538,-1.2548,-1.2551,-1.2575,-1.2567,-1.2581,-1.2608,-1.2616,-1.2623,-1.2663,-1.2656,-1.2668,-1.2689,-1.2705,-1.271,-1.2714,-1.2728,-1.2734,-1.2671,-1.2671,-1.2671,0,-1.2498,-1.2525,-1.2523,-1.2544,-1.2553,-1.2544,-1.2566,-1.2574,-1.259,-1.2596,-1.2587,-1.262,-1.2626,-1.2656,-1.2666,-1.2672,-1.2678,-1.2667,-1.271,-1.2714,-1.2718,-1.2731,-1.2736,-1.2672,-1.2672,-1.2672,-1.2672,0,-1.2546,-1.2565,-1.2582,-1.2598,-1.2609,-1.2631,-1.2632,-1.2643,-1.264,-1.2642,-1.2666,-1.2674,-1.2689,-1.2696,-1.2693,-1.2725,-1.272,-1.271,-1.2693,-1.2725,-1.2737,-1.2742,-1.2674,-1.2674,-1.2674,-1.2673,0,0,-1.2596,-1.2611,-1.2617,-1.2624,-1.2637,-1.2651,-1.2671,-1.2687,-1.2697,-1.2708,-1.2725,-1.2747,-1.2738,-1.2747,-1.2744,-1.2758,-1.2789,-1.2747,-1.2747,-1.2754,-1.2825,-1.2833,-1.2839,-1.2784,-1.2785,-1.2786,-1.2824,0,-1.2634,-1.2671,-1.267,-1.2704,-1.2721,-1.2712,-1.273,-1.2739,-1.2742,-1.2756,-1.2758,-1.2774,-1.2761,-1.2766,-1.278,-1.2783,-1.2803,-1.278,-1.2799,-1.28,-1.2797,-1.2845,-1.2853,-1.2889,-1.2829,-1.283,-1.2831,0,-1.2684,-1.2698,-1.2734,-1.2743,-1.275,-1.2767,-1.2781,-1.2795,-1.2804,-1.2805,-1.2815,-1.281,-1.283,-1.2812,-1.2839,-1.2823,-1.2831,-1.2834,-1.2835,-1.2837,-1.2817,-1.2848,-1.29,-1.2906,-1.2838,-1.2838,-1.2837,0,-1.2717,-1.2744,-1.2769,-1.2775,-1.2787,-1.2798,-1.2804,-1.2813,-1.2822,-1.2834,-1.284,-1.2854,-1.2862,-1.2873,-1.2871,-1.2859,-1.2899,-1.2881,-1.29,-1.29,-1.2909,-1.2908,-1.2963,-1.2914,-1.2914,-1.2914,-1.2913,0,-1.276,-1.2782,-1.2784,-1.2799,-1.2823,-1.2821,-1.2845,-1.2849,-1.2857,-1.2873,-1.2865,-1.288,-1.2877,-1.2892,-1.2891,-1.2913,-1.2917,-1.2917,-1.2917,-1.2918,-1.2918,-1.2923,-1.2921,-1.2915,-1.2915,-1.2914,-1.2914,0,-1.2801,-1.2803,-1.2829,-1.2838,-1.2841,-1.2859,-1.2866,-1.288,-1.2882,-1.2902,-1.2906,-1.2908,-1.2925,-1.2925,-1.2943,-1.2942,-1.297,-1.2967,-1.2967,-1.2966,-1.2985,-1.2983,-1.3045,-1.3053,-1.2998,-1.2999,-1.2999,0,-1.2828,-1.2845,-1.2856,-1.2867,-1.2873,-1.2889,-1.2899,-1.2897,-1.2908,-1.292,-1.2933,-1.2948,-1.2961,-1.2987,-1.299,-1.3004,-1.3001,-1.3022,-1.3003,-1.3004,-1.3001,-1.3001,-1.3002,-1.3025,-1.3026,-1.3027,-1.3027,0,-1.2877,-1.2877,-1.2892,-1.2907,-1.2919,-1.2931,-1.2941,-1.295,-1.2949,-1.2961,-1.2978,-1.2988,-1.3007,-1.3022,-1.3036,-1.304,-1.3033,-1.3033,-1.3038,-1.3039,-1.3039,-1.304,-1.2977,-1.3031,-1.3031,-1.3031,-1.303,-1.303,-1.2912,-1.2927,-1.2937,-1.2954,-1.2962,-1.2972,-1.2986,-1.2989,-1.3003,-1.3019,-1.3017,-1.3036,-1.3044,-1.3062,-1.3068,-1.3082,-1.3074,-1.3082,-1.3084,-1.3086,-1.3088,-1.3037,-1.3084,-1.3084,-1.3084,-1.3084,-1.3084,0,-1.2961,-1.2967,-1.2982,-1.2998,-1.301,-1.3003,-1.3015,-1.3026,-1.3043,-1.3052,-1.3064,-1.3083,-1.3098,-1.3103,-1.3117,-1.3127,-1.3125,-1.3131,-1.3131,-1.3132,-1.3093,-1.3088,-1.3133,-1.3133,-1.3133,-1.3133,-1.3133,-1.3133,-1.2988,-1.3012,-1.3013,-1.3041,-1.3047,-1.3066,-1.3073,-1.3082,-1.3089,-1.3111,-1.3124,-1.3127,-1.3133,-1.3148,-1.3161,-1.3162,-1.3168,-1.3176,-1.3175,-1.3139,-1.3134,-1.313,-1.3124,-1.3177,-1.3177,-1.3212,-1.3212,-1.3213]}]]